Location: Alston School (historical)
(35.5076°N, 89.8251°W)
Time: 21:34:21
(UTC+00:00)

USA 238 DEB - Pass Details

Date: 09 December 2025
Orbit: 883 x 1328 km, 63.4° (Epoch: 10 January)

Event Time Altitude Azimuth Distance (km) Brightness Sun altitude
Rises 23:28:21 0° 193° (SSW) 3,473 6.9 -8.6°
Reaches altitude 10° 23:30:51 10° 187° (S) 2,553 6.1 -9.0°
Maximum altitude 23:36:28 48° 114° (ESE) 1,198 3.7 -10.1°
Enters shadow 23:42:28 10° 43° (NE) 2,729 5.3 -11.2°
